Regional Weather Roundup
Issued by NWS State College, PA

Home | Current Version | Previous Version | Text Only | Print | Product List | Glossary Off
Versions: 1 2 3 4 5 6 7 8 9 10 11 12 13 14 15 16 17 18 19 20 21 22 23 24 25 26 27 28 29 30 31 32 33 34 35 36 37 38 39 40 41 42 43 44 45 46 47 48 49 50

000
ASUS41 KCTP 220010
RWRCTP

REGIONAL WEATHER ROUNDUP
NATIONAL WEATHER SERVICE STATE COLLEGE PA
700 PM EST SUN DEC 21 2014

Note: "fair" indicates few or no clouds below 12,000 feet with no
significant weather and/or obstructions to visibility.

* = STATION THAT DOES NOT REPORT PRECIPITATION /E.G. RAIN...SNOW...ETC/
    THUNDER OR FOG.

PAZ002>004-007>009-013>016-020>023-029>032-220100-
WESTERN PENNSYLVANIA

CITY           SKY/WX    TMP DP  RH WIND       PRES   REMARKS
ERIE           CLOUDY    32  20  61 SE6       30.28S
MEADVILLE      CLOUDY    29  20  69 VRB3      30.23S
FRANKLIN*      CLOUDY    28  19  69 SE3       30.24F
NEW CASTLE       N/A     30  23  75 CALM      30.25F
BEAVER COUNTY  NOT AVBL
BUTLER*        PTCLDY    27  21  80 NE6       30.24F
PITTSBURGH INT PTCLDY    29  22  75 E5        30.22F
PITTSBURGH     PTCLDY    29  19  66 E7        30.21F
INDIANA*       CLEAR     25  23  93 E5        30.27F
LATROBE        MOCLDY    27  23  86 VRB7      30.25F
WASHINGTON CO* NOT AVBL
$$

PAZ004>006-010>012-017>019-024>028-033>037-041-042-045-046-049>053-220100-
CENTRAL PENNSYLVANIA

CITY           SKY/WX    TMP DP  RH WIND       PRES   REMARKS
BRADFORD       CLOUDY    25  19  78 SE5       30.22S
DUBOIS         CLEAR     25  19  78 E3        30.22S
CLEARFIELD     CLEAR     26  19  74 E3        30.26R
JOHNSTOWN      CLEAR     25  19  78 E6        30.18F
ALTOONA        CLEAR     27  21  78 NE3       30.26R
STATE COLLEGE  CLOUDY    28  21  74 CALM      30.29R
WILLIAMSPORT   CLEAR     28  20  71 NW3       30.32R
SELINSGROVE    CLEAR     25  21  85 CALM      30.34R
FT INDIANTOWN  CLEAR     27  20  76 W2        30.33R
CAPITAL CITY   CLEAR     32  22  66 CALM      30.35R
HARRISBURG     MOCLDY    29  21  72 CALM      30.35R
YORK           CLEAR     24  19  81 CALM      30.34R
$$

PAZ038>040-043-044-047-048-054-055-060>062-067>071-220100-
EASTERN PENNSYLVANIA

CITY           SKY/WX    TMP DP  RH WIND       PRES   REMARKS
SCRANTON       CLOUDY    30  20  66 N6        30.31R
MOUNT POCONO   CLOUDY    26  20  77 N5        30.24R
ALLENTOWN      CLEAR     28  20  71 CALM      30.33R
QUAKERTOWN*    CLEAR     27  21  80 CALM      30.33S
READING        CLEAR     30  21  69 CALM      30.33R
LANCASTER      CLEAR     29  21  72 NW3       30.33R
COATESVILLE    FAIR      30  25  80 N3        30.31S
POTTSTOWN      CLEAR     26  20  77 CALM      30.34S
BLUE BELL      CLEAR     30  27  86 CALM      30.33R
DOYLESTOWN     CLOUDY    30  23  75 N3        30.32R
WILLOW GROVE   NOT AVBL
NORTH PHILA    CLEAR     31  20  63 CALM      30.36R
PHILADELPHIA   PTCLDY    34  22  61 NE3       30.35R
$$



USA.gov is the U.S. government's official web portal to all federal, state and local government web resources and services.